Time,TemperatureF,DewpointF,PressureIn,WindDirection,WindDirectionDegrees,WindSpeedMPH,WindSpeedGustMPH,Humidity,HourlyPrecipIn,Conditions,Clouds,dailyrainin,SoftwareType,DateUTC
2013-04-20 00:03:00,67.0,63.0,29.88,East,92,2.0,9.0,87,0.00,,,0.00,,2013-04-20 04:03:00,
2013-04-20 00:12:00,67.0,63.0,29.88,East,92,2.0,9.0,87,0.00,,,0.00,,2013-04-20 04:12:00,
2013-04-20 00:23:00,67.0,63.0,29.86,NNE,30,3.0,9.0,87,0.00,,,0.00,,2013-04-20 04:23:00,
2013-04-20 00:33:00,67.0,63.0,29.86,WSW,243,3.0,7.0,86,0.00,,,0.00,,2013-04-20 04:33:00,
2013-04-20 00:42:00,67.0,63.0,29.86,WSW,243,3.0,7.0,86,0.00,,,0.00,,2013-04-20 04:42:00,
2013-04-20 00:53:00,68.0,64.0,29.87,West,278,2.0,10.0,86,0.00,,,0.00,,2013-04-20 04:53:00,
2013-04-20 01:02:00,68.0,64.0,29.86,WSW,253,2.0,9.0,86,0.00,,,0.00,,2013-04-20 05:02:00,
2013-04-20 01:12:00,68.0,64.0,29.86,WSW,253,2.0,9.0,86,0.00,,,0.00,,2013-04-20 05:12:00,
2013-04-20 01:22:00,68.0,64.0,29.87,SW,222,2.0,15.0,88,0.00,,,0.00,,2013-04-20 05:22:00,
2013-04-20 01:32:00,67.0,64.0,29.87,WSW,243,2.0,10.0,90,0.02,,,0.02,,2013-04-20 05:32:00,
2013-04-20 01:43:00,67.0,64.0,29.87,WSW,243,2.0,10.0,90,0.02,,,0.02,,2013-04-20 05:43:00,
2013-04-20 01:52:00,65.0,63.0,29.86,WSW,255,2.0,10.0,94,0.04,,,0.04,,2013-04-20 05:52:00,
2013-04-20 02:02:00,65.0,64.0,29.85,East,94,0.0,3.0,95,0.05,,,0.05,,2013-04-20 06:02:00,
2013-04-20 02:12:00,65.0,64.0,29.85,East,94,0.0,3.0,95,0.05,,,0.05,,2013-04-20 06:12:00,
2013-04-20 02:21:00,65.0,64.0,29.85,WNW,285,1.0,5.0,95,0.06,,,0.06,,2013-04-20 06:21:00,
2013-04-20 02:32:00,64.0,63.0,29.85,SSW,203,2.0,6.0,95,0.04,,,0.06,,2013-04-20 06:32:00,
2013-04-20 02:42:00,64.0,63.0,29.85,SSW,203,2.0,6.0,95,0.04,,,0.06,,2013-04-20 06:42:00,
2013-04-20 02:52:00,64.0,63.0,29.84,NNW,342,2.0,7.0,95,0.03,,,0.07,,2013-04-20 06:52:00,
2013-04-20 03:01:00,64.0,63.0,29.84,WSW,257,2.0,5.0,95,0.02,,,0.07,,2013-04-20 07:01:00,
2013-04-20 03:11:00,64.0,63.0,29.84,WSW,257,2.0,5.0,95,0.02,,,0.07,,2013-04-20 07:11:00,
2013-04-20 03:22:00,64.0,63.0,29.83,WSW,255,1.0,3.0,95,0.01,,,0.07,,2013-04-20 07:22:00,
2013-04-20 03:32:00,64.0,63.0,29.83,West,273,1.0,7.0,95,0.01,,,0.07,,2013-04-20 07:32:00,
2013-04-20 03:42:00,63.0,62.0,29.83,ENE,67,0.0,2.0,95,0.00,,,0.07,,2013-04-20 07:42:00,
2013-04-20 03:52:00,63.0,62.0,29.83,ENE,67,0.0,2.0,95,0.00,,,0.07,,2013-04-20 07:52:00,
2013-04-20 04:02:00,62.0,60.0,29.85,NE,55,1.0,3.0,92,0.01,,,0.08,,2013-04-20 08:02:00,
2013-04-20 04:11:00,62.0,60.0,29.85,NE,55,1.0,3.0,92,0.01,,,0.08,,2013-04-20 08:11:00,
2013-04-20 04:21:00,55.0,53.0,29.86,West,262,1.0,3.0,92,0.04,,,0.11,,2013-04-20 08:21:00,
2013-04-20 04:32:00,55.0,53.0,29.87,West,276,1.0,3.0,93,0.04,,,0.11,,2013-04-20 08:32:00,
2013-04-20 04:42:00,55.0,53.0,29.87,West,276,1.0,3.0,93,0.04,,,0.11,,2013-04-20 08:42:00,
2013-04-20 04:52:00,53.0,51.0,29.89,West,271,1.0,3.0,94,0.05,,,0.12,,2013-04-20 08:52:00,
2013-04-20 05:02:00,53.0,51.0,29.89,West,261,0.0,2.0,94,0.06,,,0.14,,2013-04-20 09:02:00,
2013-04-20 05:12:00,53.0,51.0,29.89,West,261,0.0,2.0,94,0.06,,,0.14,,2013-04-20 09:12:00,
2013-04-20 05:21:00,52.0,50.0,29.88,West,278,1.0,2.0,94,0.04,,,0.15,,2013-04-20 09:21:00,
2013-04-20 05:33:00,51.0,50.0,29.90,SSW,194,0.0,3.0,95,0.05,,,0.16,,2013-04-20 09:33:00,
2013-04-20 05:43:00,51.0,50.0,29.90,SSW,194,0.0,3.0,95,0.05,,,0.16,,2013-04-20 09:43:00,
2013-04-20 05:53:00,50.0,49.0,29.92,West,266,1.0,1.0,95,0.08,,,0.20,,2013-04-20 09:53:00,
2013-04-20 06:03:00,50.0,49.0,29.91,West,260,1.0,3.0,95,0.10,,,0.24,,2013-04-20 10:03:00,
2013-04-20 06:13:00,50.0,49.0,29.91,West,260,1.0,3.0,95,0.10,,,0.24,,2013-04-20 10:13:00,
2013-04-20 06:23:00,48.0,47.0,29.91,West,269,0.0,2.0,95,0.13,,,0.28,,2013-04-20 10:23:00,
2013-04-20 06:33:00,48.0,47.0,29.93,West,261,1.0,2.0,95,0.14,,,0.30,,2013-04-20 10:33:00,
2013-04-20 06:42:00,48.0,47.0,29.93,West,261,1.0,2.0,95,0.14,,,0.30,,2013-04-20 10:42:00,
2013-04-20 06:53:00,47.0,46.0,29.96,WSW,246,1.0,3.0,96,0.11,,,0.31,,2013-04-20 10:53:00,
2013-04-20 07:02:00,47.0,46.0,29.96,West,266,1.0,2.0,96,0.07,,,0.31,,2013-04-20 11:02:00,
2013-04-20 07:12:00,47.0,46.0,29.96,West,267,0.0,2.0,95,0.04,,,0.32,,2013-04-20 11:12:00,
2013-04-20 07:23:00,47.0,46.0,29.96,West,267,0.0,2.0,95,0.04,,,0.32,,2013-04-20 11:23:00,
2013-04-20 07:32:00,47.0,46.0,29.97,West,268,0.0,1.0,96,0.03,,,0.33,,2013-04-20 11:32:00,
2013-04-20 07:42:00,47.0,46.0,29.97,West,268,0.0,1.0,96,0.03,,,0.33,,2013-04-20 11:42:00,
2013-04-20 07:53:00,47.0,46.0,30.00,West,260,2.0,6.0,95,0.05,,,0.36,,2013-04-20 11:53:00,
2013-04-20 08:02:00,46.0,44.0,30.01,WSW,256,1.0,3.0,94,0.06,,,0.37,,2013-04-20 12:02:00,
2013-04-20 08:11:00,46.0,44.0,30.01,WSW,256,1.0,3.0,94,0.06,,,0.37,,2013-04-20 12:11:00,
2013-04-20 08:22:00,46.0,44.0,30.02,WSW,252,1.0,3.0,93,0.05,,,0.37,,2013-04-20 12:22:00,
2013-04-20 08:32:00,46.0,44.0,30.01,West,266,1.0,5.0,93,0.04,,,0.37,,2013-04-20 12:32:00,
2013-04-20 08:42:00,46.0,44.0,30.01,West,266,1.0,5.0,93,0.04,,,0.37,,2013-04-20 12:42:00,
2013-04-20 08:52:00,46.0,44.0,30.03,WSW,253,1.0,3.0,93,0.02,,,0.38,,2013-04-20 12:52:00,
2013-04-20 09:02:00,46.0,44.0,30.03,WNW,284,1.0,3.0,93,0.01,,,0.38,,2013-04-20 13:02:00,
2013-04-20 09:11:00,46.0,44.0,30.03,WNW,284,1.0,3.0,93,0.01,,,0.38,,2013-04-20 13:11:00,
2013-04-20 09:21:00,46.0,43.0,30.03,WSW,256,1.0,3.0,90,0.01,,,0.38,,2013-04-20 13:21:00,
2013-04-20 09:32:00,46.0,43.0,30.03,West,261,1.0,3.0,90,0.01,,,0.38,,2013-04-20 13:32:00,
2013-04-20 09:42:00,46.0,43.0,30.03,West,261,1.0,3.0,90,0.01,,,0.38,,2013-04-20 13:42:00,
2013-04-20 09:52:00,47.0,43.0,30.03,West,259,1.0,3.0,86,0.00,,,0.38,,2013-04-20 13:52:00,
2013-04-20 10:02:00,48.0,44.0,30.03,West,281,1.0,3.0,86,0.00,,,0.38,,2013-04-20 14:02:00,
2013-04-20 10:11:00,48.0,44.0,30.03,West,281,1.0,3.0,86,0.00,,,0.38,,2013-04-20 14:11:00,
2013-04-20 10:21:00,48.0,42.0,30.04,West,278,1.0,5.0,81,0.00,,,0.38,,2013-04-20 14:21:00,
2013-04-20 10:32:00,48.0,42.0,30.05,SW,225,1.0,5.0,81,0.00,,,0.38,,2013-04-20 14:32:00,
2013-04-20 10:42:00,48.0,42.0,30.05,SW,225,1.0,5.0,81,0.00,,,0.38,,2013-04-20 14:42:00,
2013-04-20 10:52:00,50.0,44.0,30.06,WSW,256,1.0,3.0,80,0.00,,,0.38,,2013-04-20 14:52:00,
2013-04-20 11:01:00,50.0,43.0,30.06,WSW,250,2.0,3.0,76,0.00,,,0.38,,2013-04-20 15:01:00,
2013-04-20 11:12:00,50.0,43.0,30.06,WSW,250,2.0,3.0,76,0.00,,,0.38,,2013-04-20 15:12:00,
2013-04-20 11:21:00,52.0,43.0,30.07,West,262,2.0,5.0,72,0.00,,,0.38,,2013-04-20 15:21:00,
2013-04-20 11:33:00,52.0,43.0,30.08,NW,319,2.0,7.0,71,0.00,,,0.38,,2013-04-20 15:33:00,
2013-04-20 11:43:00,52.0,43.0,30.08,NW,319,2.0,7.0,71,0.00,,,0.38,,2013-04-20 15:43:00,
2013-04-20 11:53:00,53.0,41.0,30.08,West,267,3.0,5.0,63,0.00,,,0.38,,2013-04-20 15:53:00,
2013-04-20 12:03:00,53.0,40.0,30.09,NNE,25,3.0,6.0,62,0.00,,,0.38,,2013-04-20 16:03:00,
2013-04-20 12:12:00,54.0,41.0,30.08,WNW,295,2.0,8.0,62,0.00,,,0.38,,2013-04-20 16:12:00,
2013-04-20 12:23:00,54.0,41.0,30.08,WNW,295,2.0,8.0,62,0.00,,,0.38,,2013-04-20 16:23:00,
2013-04-20 12:33:00,55.0,39.0,30.09,SSE,166,4.0,9.0,55,0.00,,,0.38,,2013-04-20 16:33:00,
2013-04-20 12:42:00,55.0,39.0,30.09,SSE,166,4.0,9.0,55,0.00,,,0.38,,2013-04-20 16:42:00,
2013-04-20 12:53:00,54.0,38.0,30.09,West,274,3.0,6.0,55,0.00,,,0.38,,2013-04-20 16:53:00,
2013-04-20 13:02:00,55.0,40.0,30.09,WSW,253,2.0,6.0,56,0.00,,,0.38,,2013-04-20 17:02:00,
2013-04-20 13:12:00,55.0,40.0,30.09,WSW,253,2.0,6.0,56,0.00,,,0.38,,2013-04-20 17:12:00,
2013-04-20 13:23:00,55.0,37.0,30.09,West,266,3.0,10.0,50,0.00,,,0.38,,2013-04-20 17:23:00,
2013-04-20 13:33:00,55.0,36.0,30.09,West,280,5.0,9.0,48,0.00,,,0.38,,2013-04-20 17:33:00,
2013-04-20 13:42:00,55.0,36.0,30.09,West,280,5.0,9.0,48,0.00,,,0.38,,2013-04-20 17:42:00,
2013-04-20 13:52:00,55.0,36.0,30.10,West,274,2.0,5.0,48,0.00,,,0.38,,2013-04-20 17:52:00,
2013-04-20 14:02:00,55.0,35.0,30.10,WNW,284,3.0,6.0,47,0.00,,,0.38,,2013-04-20 18:02:00,
2013-04-20 14:12:00,55.0,35.0,30.10,WSW,243,3.0,5.0,47,0.00,,,0.38,,2013-04-20 18:12:00,
2013-04-20 14:22:00,55.0,35.0,30.10,WSW,243,3.0,5.0,47,0.00,,,0.38,,2013-04-20 18:22:00,
2013-04-20 14:32:00,56.0,37.0,30.10,West,262,2.0,6.0,49,0.00,,,0.38,,2013-04-20 18:32:00,
2013-04-20 14:42:00,56.0,37.0,30.10,West,262,2.0,6.0,49,0.00,,,0.38,,2013-04-20 18:42:00,
2013-04-20 14:52:00,56.0,36.0,30.11,WSW,253,2.0,7.0,47,0.00,,,0.38,,2013-04-20 18:52:00,
2013-04-20 15:02:00,56.0,36.0,30.11,South,175,1.0,8.0,47,0.00,,,0.38,,2013-04-20 19:02:00,
2013-04-20 15:11:00,55.0,35.0,30.12,SW,229,1.0,3.0,47,0.00,,,0.38,,2013-04-20 19:11:00,
2013-04-20 15:21:00,55.0,35.0,30.12,SW,229,1.0,3.0,47,0.00,,,0.38,,2013-04-20 19:21:00,
2013-04-20 15:32:00,55.0,34.0,30.12,West,269,2.0,12.0,45,0.00,,,0.38,,2013-04-20 19:32:00,
2013-04-20 15:42:00,56.0,34.0,30.12,WNW,297,3.0,6.0,43,0.00,,,0.38,,2013-04-20 19:42:00,
2013-04-20 15:52:00,56.0,34.0,30.12,WNW,297,3.0,6.0,43,0.00,,,0.38,,2013-04-20 19:52:00,
2013-04-20 16:02:00,56.0,34.0,30.13,West,267,4.0,8.0,43,0.00,,,0.38,,2013-04-20 20:02:00,
2013-04-20 16:12:00,55.0,35.0,30.14,West,274,2.0,3.0,46,0.00,,,0.38,,2013-04-20 20:12:00,
2013-04-20 16:22:00,55.0,35.0,30.14,West,274,2.0,3.0,46,0.00,,,0.38,,2013-04-20 20:22:00,
2013-04-20 16:32:00,55.0,35.0,30.15,ENE,67,1.0,3.0,46,0.00,,,0.38,,2013-04-20 20:32:00,
2013-04-20 16:42:00,55.0,35.0,30.15,ENE,67,1.0,3.0,46,0.00,,,0.38,,2013-04-20 20:42:00,
2013-04-20 16:52:00,55.0,35.0,30.16,West,267,2.0,3.0,47,0.00,,,0.38,,2013-04-20 20:52:00,
2013-04-20 17:01:00,55.0,35.0,30.16,WNW,285,2.0,3.0,46,0.00,,,0.38,,2013-04-20 21:01:00,
2013-04-20 17:12:00,55.0,35.0,30.16,WNW,285,2.0,3.0,46,0.00,,,0.38,,2013-04-20 21:12:00,
2013-04-20 17:22:00,55.0,34.0,30.18,SW,232,2.0,6.0,45,0.00,,,0.38,,2013-04-20 21:22:00,
2013-04-20 17:33:00,55.0,34.0,30.19,West,259,2.0,6.0,45,0.00,,,0.38,,2013-04-20 21:33:00,
2013-04-20 17:43:00,55.0,34.0,30.19,West,259,2.0,6.0,45,0.00,,,0.38,,2013-04-20 21:43:00,
2013-04-20 17:53:00,56.0,33.0,30.19,West,277,2.0,9.0,42,0.00,,,0.38,,2013-04-20 21:53:00,
2013-04-20 18:03:00,56.0,31.0,30.19,West,278,3.0,6.0,39,0.00,,,0.38,,2013-04-20 22:03:00,
2013-04-20 18:12:00,56.0,31.0,30.19,West,278,3.0,6.0,39,0.00,,,0.38,,2013-04-20 22:12:00,
2013-04-20 18:23:00,55.0,30.0,30.21,NNW,339,2.0,6.0,38,0.00,,,0.38,,2013-04-20 22:23:00,
2013-04-20 18:32:00,54.0,29.0,30.22,WNW,300,3.0,8.0,38,0.00,,,0.38,,2013-04-20 22:32:00,
2013-04-20 18:42:00,54.0,29.0,30.22,WNW,300,3.0,8.0,38,0.00,,,0.38,,2013-04-20 22:42:00,
2013-04-20 18:53:00,54.0,31.0,30.23,West,259,2.0,7.0,42,0.00,,,0.38,,2013-04-20 22:53:00,
2013-04-20 19:02:00,54.0,31.0,30.23,West,278,2.0,7.0,41,0.00,,,0.38,,2013-04-20 23:02:00,
2013-04-20 19:12:00,54.0,31.0,30.23,West,278,2.0,7.0,41,0.00,,,0.38,,2013-04-20 23:12:00,
2013-04-20 19:22:00,53.0,29.0,30.25,WSW,257,1.0,5.0,40,0.00,,,0.38,,2013-04-20 23:22:00,
2013-04-20 19:32:00,53.0,31.0,30.26,West,264,2.0,3.0,42,0.00,,,0.38,,2013-04-20 23:32:00,
2013-04-20 19:42:00,53.0,31.0,30.26,West,264,2.0,3.0,42,0.00,,,0.38,,2013-04-20 23:42:00,
2013-04-20 19:53:00,52.0,29.0,30.27,WSW,254,2.0,10.0,41,0.00,,,0.38,,2013-04-20 23:53:00,
2013-04-20 20:01:00,51.0,29.0,30.28,WNW,288,1.0,3.0,43,0.00,,,0.38,,2013-04-21 00:01:00,
2013-04-20 20:12:00,51.0,29.0,30.28,WNW,288,1.0,3.0,43,0.00,,,0.38,,2013-04-21 00:12:00,
2013-04-20 20:22:00,50.0,29.0,30.30,WNW,285,1.0,3.0,45,0.00,,,0.38,,2013-04-21 00:22:00,
2013-04-20 20:32:00,50.0,29.0,30.31,WNW,300,2.0,3.0,44,0.00,,,0.38,,2013-04-21 00:32:00,
2013-04-20 20:42:00,50.0,29.0,30.31,WNW,300,2.0,3.0,44,0.00,,,0.38,,2013-04-21 00:42:00,
2013-04-20 20:52:00,49.0,27.0,30.33,West,269,1.0,5.0,43,0.00,,,0.38,,2013-04-21 00:52:00,
2013-04-20 21:01:00,49.0,29.0,30.34,WSW,253,1.0,3.0,45,0.00,,,0.38,,2013-04-21 01:01:00,
2013-04-20 21:12:00,49.0,29.0,30.34,WSW,253,1.0,3.0,45,0.00,,,0.38,,2013-04-21 01:12:00,
2013-04-20 21:21:00,48.0,27.0,30.36,West,281,1.0,5.0,44,0.00,,,0.38,,2013-04-21 01:21:00,
2013-04-20 21:32:00,48.0,28.0,30.36,WNW,285,1.0,5.0,46,0.00,,,0.38,,2013-04-21 01:32:00,
2013-04-20 21:42:00,48.0,28.0,30.36,WNW,285,1.0,5.0,46,0.00,,,0.38,,2013-04-21 01:42:00,
2013-04-20 21:52:00,47.0,28.0,30.37,WSW,252,1.0,2.0,47,0.00,,,0.38,,2013-04-21 01:52:00,
2013-04-20 22:02:00,46.0,26.0,30.38,West,278,1.0,3.0,46,0.00,,,0.38,,2013-04-21 02:02:00,
2013-04-20 22:11:00,46.0,26.0,30.38,West,278,1.0,3.0,46,0.00,,,0.38,,2013-04-21 02:11:00,
2013-04-20 22:22:00,46.0,27.0,30.39,WSW,242,2.0,3.0,47,0.00,,,0.38,,2013-04-21 02:22:00,
2013-04-20 22:32:00,46.0,27.0,30.40,WSW,252,1.0,3.0,47,0.00,,,0.38,,2013-04-21 02:32:00,
2013-04-20 22:42:00,46.0,27.0,30.40,WSW,252,1.0,3.0,47,0.00,,,0.38,,2013-04-21 02:42:00,
2013-04-20 22:52:00,45.0,28.0,30.41,WSW,253,1.0,2.0,52,0.00,,,0.38,,2013-04-21 02:52:00,
2013-04-20 23:01:00,44.0,28.0,30.42,West,266,1.0,3.0,54,0.00,,,0.38,,2013-04-21 03:01:00,
2013-04-20 23:11:00,44.0,28.0,30.42,West,266,1.0,3.0,54,0.00,,,0.38,,2013-04-21 03:11:00,
2013-04-20 23:22:00,45.0,27.0,30.43,West,269,1.0,3.0,48,0.00,,,0.38,,2013-04-21 03:22:00,
2013-04-20 23:33:00,44.0,26.0,30.42,WSW,253,0.0,3.0,49,0.00,,,0.38,,2013-04-21 03:33:00,
2013-04-20 23:42:00,44.0,26.0,30.42,WSW,253,0.0,3.0,49,0.00,,,0.38,,2013-04-21 03:42:00,
2013-04-20 23:53:00,44.0,26.0,30.44,West,276,1.0,3.0,48,0.00,,,0.38,,2013-04-21 03:53:00,